Regional Weather Roundup
Issued by NWS

Home | Current Version | Previous Version | Text Only | Print | Product List | Glossary On
Versions: 1 2 3 4 5 6 7 8 9 10 11 12 13 14 15 16 17 18 19 20 21 22 23 24 25 26 27 28 29 30 31 32 33 34 35 36 37 38 39 40 41 42 43 44 45 46 47 48 49 50
000
ASUS43 KMPX 251601
RWRMN
WEATHER ROUNDUP FOR MINNESOTA
NATIONAL WEATHER SERVICE TWIN CITIES/CHANHASSEN MN
1000 AM CST THU DEC 25 2014


NOTE: "FAIR" INDICATES FEW OR NO CLOUDS BELOW 12,000 FEET WITH NO
SIGNIFICANT WEATHER AND/OR OBSTRUCTIONS TO VISIBILITY. N/A MEANS
CURRENT SKY AND/OR WEATHER CONDITIONS ARE NOT AVAILABLE.

MNZ060>063-068>070-251700-
   Twin Cities Metro

CITY           SKY/WX    TMP DP  RH WIND       PRES   REMARKS
TWIN CITIES    CLOUDY    32  27  81 S7        29.73R WCI  26
ST PAUL        CLOUDY    32  28  85 S5        29.75R WCI  27
CRYSTAL        CLOUDY    33  28  81 S8        29.71R WCI  26
BLAINE         CLOUDY    34  30  86 S7        29.72R WCI  28
LAKEVILLE      PTSUNNY   30  28  93 S6        29.72R FOG     WCI  24
EDEN PRAIRIE   CLOUDY    32  28  85 S7        29.71R WCI  26
SOUTH ST PAUL  CLOUDY    32  29  87 S6        29.74R WCI  26
LAKE ELMO      CLOUDY    32  30  93 S10       29.74R WCI  24
$$
MNZ001>005-007-008-013>017-022>024-027-028-251700-
   Northwest Minnesota

CITY           SKY/WX    TMP DP  RH WIND       PRES   REMARKS
BEMIDJI        CLOUDY    28  25  88 NW5       29.64R WCI  23
HALLOCK        CLOUDY    27  25  93 NW13      29.69R WCI  16
ROSEAU         CLOUDY    28  21  74 W10G17    29.65R WCI  19
WARROAD        CLOUDY    28  25  86 W12       29.63R WCI  18
THIEF RVR FALL CLOUDY    27  25  93 W9        29.67R WCI  17
CROOKSTON      PTSUNNY   27  25  93 NW10      29.70R WCI  17
FOSSTON        CLOUDY    27  25  93 W9        29.66R WCI  17
DETROIT LAKES  CLOUDY    28  28 100 N7        29.68R WCI  21
MOORHEAD       CLOUDY    28  28 100 NW6       29.72R WCI  22
PARK RAPIDS    CLOUDY    29  26  89 NW10      29.65R WCI  20
MAHNOMEN       CLOUDY    28  26  93 NW7       29.66R WCI  20
$$
MNZ006-009>011-018-025>026-251700-
   North Central Minnesota

CITY           SKY/WX    TMP DP  RH WIND       PRES   REMARKS
BAUDETTE       CLOUDY    30  26  85 VRB6      29.61R WCI  24
FLAG ISLAND    CLOUDY    28  25  86 NW18      29.59R WCI  16
INTL FALLS     CLOUDY    30  27  88 W7        29.59R WCI  23
WASKISH        CLOUDY    30  28  93 W9G17     29.63R WCI  22
BIG FORK       CLOUDY    30  27  86 W6        29.62R WCI  24
LONGVILLE      CLOUDY    30  28  93 W6        29.64R WCI  24
GRAND RAPIDS   CLOUDY    30  27  86 W7        29.63R WCI  23
CRANE LAKE     CLOUDY    28  27  93 CALM      29.62R
ORR            CLOUDY    30  25  80 W6        29.59R WCI  24
COOK           CLOUDY    30  27  86 W7        29.62R WCI  23
WALKER         CLOUDY    28  25  88 W6        29.64R WCI  22
$$
MNZ012-019>021-037-251700-
   Northeast Minnesota

CITY           SKY/WX    TMP DP  RH WIND       PRES   REMARKS
DULUTH         CLOUDY    31  27  85 W13       29.63R WCI  21
ELY            CLOUDY    30  27  86 W10G18    29.60R WCI  21
HIBBING        CLOUDY    32  26  78 W6        29.62R WCI  26
EVELETH        PTSUNNY   32  30  93 SW8       29.63R WCI  25
DULUTH HARBOR  CLOUDY    34  30  86 SW10      29.68R WCI  26
TWO HARBORS    CLOUDY    36  28  75 W8        29.62R
SILVER BAY     CLOUDY    34  28  80 SW3       29.61R
GRAND MARAIS     N/A     34  29  82 W6        29.62R WCI  29
G MARAIS ARPRT CLOUDY    28  25  86 SW5       29.57R WCI  23
$$
MNZ029>031-032-039>041-046>048-054>057-064-251700-
   West Central Minnesota

CITY           SKY/WX    TMP DP  RH WIND       PRES   REMARKS
FERGUS FALLS   CLOUDY    27  27 100 NW10      29.72R FOG     WCI  17
WHEATON        CLOUDY    27  25  93 NW8       29.73R WCI  18
MORRIS         CLOUDY    30  28  93 NW6       29.68R WCI  24
ALEXANDRIA     CLOUDY    29  27  92 SW8       29.67R WCI  21
ELBOW LAKE     CLOUDY    28  27  94 NW8       29.68R WCI  20
WADENA         CLOUDY    28  28 100 W8        29.66R WCI  20
GLENWOOD       CLOUDY    30  28  93 SW8       29.68R WCI  23
APPLETON       CLOUDY    34  30  86 W3        29.70R
BENSON         CLOUDY    32  28  86 CALM      29.69R
ORTONVILLE     CLOUDY    32  27  80 NW8       29.69R WCI  25
MADISON        LGT SNOW  36  34  93 NW5       29.69R
WILLMAR        LGT SNOW  30  28  93 SW3       29.70R
$$
MNZ033>034-036-042>043-049>051-058-059-251700-
   Central Minnesota

CITY           SKY/WX    TMP DP  RH WIND       PRES   REMARKS
ST CLOUD       CLOUDY    33  27  78 S9        29.69R WCI  25
SAUK CENTRE    CLOUDY    30  28  90 SW7       29.68R WCI  23
PAYNESVILLE    CLOUDY    28  27  96 S6        29.70R FOG     WCI  22
AITKIN         CLOUDY    34  27  75 SW6       29.65R WCI  29
PINE RIVER     CLOUDY    30  28  93 W5        29.70R FOG     WCI  25
BRAINERD       CLOUDY    30  27  88 SW9       29.67R WCI  22
STAPLES        CLOUDY    28  28 100 W8        29.67R WCI  20
LONG PRAIRIE   CLOUDY    30  28  93 W6        29.68R WCI  24
LITTLE FALLS   CLOUDY    32  28  86 SW5       29.68R WCI  27
LITCHFIELD     MIX PCPN  32  30  93 S3        29.70R
BUFFALO        CLOUDY    32  28  88 S5        29.72R FOG     WCI  27
MAPLE LAKE     LGT SNOW  32  31  94 S3        29.71R
$$
MNZ037-044-045-052-053-251700-
   East Central Minnesota

CITY           SKY/WX    TMP DP  RH WIND       PRES   REMARKS
PRINCETON      CLOUDY    34  28  80 S7        29.70R WCI  28
MORA           CLOUDY    32  27  80 SW6       29.70R WCI  26
CAMBRIDGE      CLOUDY    34  25  69 S8        29.69R WCI  27
RUSH CITY      CLOUDY    31  28  86 SW3       29.71R
MOOSE LAKE     CLOUDY    32  28  86 SW6       29.66R WCI  26
HINCKLEY       CLOUDY    32  30  93 CALM      29.69R
CLOQUET        CLOUDY    30  28  93 SW6       29.65R WCI  24
MCGREGOR       CLOUDY    32  28  86 SW7       29.67R WCI  26
$$
MNZ071>073-080-081-089-090-097-098-251700-
   Southwest Minnesota

CITY           SKY/WX    TMP DP  RH WIND       PRES   REMARKS
MONTEVIDEO     LGT SNOW  30  30 100 CALM      29.70R
GRANITE FALLS  CLOUDY    31  29  92 CALM      29.71R
CANBY          LGT SNOW  31  30  94 CALM      29.70R
MARSHALL       PTSUNNY   30  27  86 CALM      29.69R
REDWOOD FALLS  CLOUDY    32  29  88 S7        29.69R FOG     WCI  26
OLIVIA         CLOUDY    30  30 100 SE3       29.68R FOG
PIPESTONE      PTSUNNY   28  28 100 E3        29.64R FOG
WINDOM         PTSUNNY   30  28  93 CALM      29.68R
WORTHINGTON    CLOUDY    30 -17  12 CALM      29.68R
JACKSON        CLOUDY    32  28  86 S5        29.69R WCI  27
TRACY          PTSUNNY   32  29  90 W5        29.69R WCI  27
SLAYTON        PTSUNNY   30  28  92 CALM      29.67R
$$
MNZ065>067-074>077-082>085-091>093-251700-
   South Central Minnesota

CITY           SKY/WX    TMP DP  RH WIND       PRES   REMARKS
MANKATO        CLOUDY    32  27  80 S8        29.71R WCI  25
NEW ULM        PTSUNNY   30  30 100 S7        29.69R WCI  23
ST JAMES       CLOUDY    34  28  80 SE6       29.71R WCI  29
FAIRMONT       CLOUDY    32  27  80 S10       29.71R WCI  24
GLENCOE        CLOUDY    33  31  94 S5        29.70R FOG     WCI  28
FARIBAULT      CLOUDY    32  28  86 S7        29.73R WCI  26
OWATONNA       CLOUDY    32  28  86 S13       29.73R WCI  22
ALBERT LEA     CLOUDY    32  30  93 S8        29.72R WCI  25
$$
MNZ078>079-086>088-094>096-251700-
   Southeast Minnesota

CITY           SKY/WX    TMP DP  RH WIND       PRES   REMARKS
ROCHESTER      CLOUDY    30  28  92 S15       29.74R WCI  19
RED WING       CLOUDY    34  28  80 S6        29.75R WCI  29
STANTON        CLOUDY    33  29  85 S7        29.72R WCI  27
DODGE CENTER   CLOUDY    30  30 100 S16       29.73R WCI  19
WINONA         CLOUDY    34  30  86 S3        29.79R
AUSTIN         CLOUDY    30  28  93 S14       29.75R WCI  20
PRESTON        CLOUDY    30  28  91 S12       29.76R WCI  20
$$
ABBREVIATIONS USED IN REMARKS
   TC - TEMPERATURES IN CELSIUS
  WCI - WIND CHILL INDEX
   HX - HEAT INDEX
  VSB - VISIBILITY
$$


USA.gov is the U.S. government's official web portal to all federal, state and local government web resources and services.